Погода в Шорчекасах

Россия / Чувашская Республика     55°58′34″N   47°28′22″E
темп.,
°C
ветер,
м/с
пор.,
м/с
влажн.,
%
обл.,
%
осадки,
мм/ч
давл.,
гПа
погр.,
м
16 мая, пн
пн1600:00+7зюз228042 0.0 100016
03:00+6з228751 0.0 99926
06:00+9зсз357852 0.0 999179
09:00+13з456249 0.1 999831
12:00+15з575672 0.9 9991724
15:00+14з576473 1.8 9991194
18:00+11з487564 0.5 999529
21:00+7з379142 0.5 1000149
17 мая, вт
вт1700:00+6зюз2494100 0.0 100067
03:00+5зюз349666 0.0 100085
06:00+7зюз459086 0.0 1000292
09:00+8з3484100 0.1 1000565
12:00+9зюз4574100 0.1 1000795
15:00+11з4468100 0.2 1000891
18:00+10зсз3477100 0.0 1001550
21:00+7зсз3488100 0.0 100177
18 мая, ср
ср1800:00+6з3597100 4.5 1000183
03:00+6зюз4895100 11.3 999466
06:00+7ссз3898100 1.0 999435
09:00+9ссв6988100 1.4 1001856
12:00+8с6887100 0.6 1003782
15:00+9с577870 1.1 1004836
18:00+8ссз478463 0.4 1005621
21:00+6сз379187 0.6 1007262
19 мая, чт
чт1900:00+5ссз229166 0.2 100757
03:00+2сз229490 0.2 100833
06:00+4сз3582100 0.0 1008256
09:00+6сз3466100 0.0 10081168
12:00+7зсз456796 0.1 10091227
15:00+8зсз4562100 0.4 10081110
18:00+7ссз457586 0.6 1009638
21:00+3ссз36917 0.6 1010107
20 мая, пт
пт2000:00+2зсз33885 0.0 101043
03:000сз35955 0.0 1010100
06:00+3сз478912 0.0 1011294
09:00+8сз566318 0.1 10101280
12:00+11зсз665098 0.7 10102058
15:00+9сз6762100 1.5 10091386
18:00+7сз5871100 0.6 1009886
21:00+3сз358226 0.7 101081